SIA222 YSSY-WSSS

Flight info

Callsign SIA222
Flight time 8h 1m
Altitude 36000
Route RIC H226 ENPAG T74 MILIV/N0492F380 T74 TN A464 KIKEM M774 LAMUD/N0483F400 M774 OBDOS T22 UGEBO UGEBO1B
Aircraft A388/J-SDE1E2E3GHIJ2J4J5M1P2RWXYZ/LB1D1

Departure

Time 2026-05-06 01:43
Airport Sydney Kingsford Smith International Airport (YSSY)

Arrival

Time 2026-05-06 09:45
Airport Singapore Changi Airport (WSSS)
Time Latitude Longitude Altitude Speed Heading
2026-05-06 01:20 -33.93612 151.16921 35 ft 0 kts 178°
2026-05-06 01:31 -33.93593 151.16920 35 ft 4 kts 178°
2026-05-06 01:31 -33.93566 151.16919 35 ft 4 kts 178°
2026-05-06 01:32 -33.93540 151.16918 35 ft 4 kts 179°
2026-05-06 01:32 -33.93515 151.16917 35 ft 2 kts 180°
2026-05-06 01:32 -33.93492 151.16917 34 ft 4 kts 174°
2026-05-06 01:32 -33.93465 151.16912 35 ft 4 kts 168°
2026-05-06 01:33 -33.93441 151.16906 35 ft 1 kts 167°
2026-05-06 01:33 -33.93441 151.16905 35 ft 0 kts 167°
2026-05-06 01:38 -33.93449 151.16908 35 ft 4 kts 167°
2026-05-06 01:38 -33.93486 151.16919 35 ft 7 kts 157°
2026-05-06 01:38 -33.93511 151.16960 35 ft 7 kts 95°
2026-05-06 01:39 -33.93502 151.17032 35 ft 11 kts 77°
2026-05-06 01:39 -33.93467 151.17085 34 ft 8 kts 13°
2026-05-06 01:39 -33.93404 151.17078 35 ft 10 kts 346°
2026-05-06 01:39 -33.93328 151.17049 35 ft 13 kts 333°
2026-05-06 01:40 -33.93268 151.16976 34 ft 13 kts 321°
2026-05-06 01:40 -33.93198 151.16947 35 ft 6 kts 349°
2026-05-06 01:40 -33.93144 151.16934 35 ft 10 kts 348°
2026-05-06 01:40 -33.93081 151.16918 35 ft 2 kts 348°
2026-05-06 01:41 -33.93055 151.16912 35 ft 6 kts 348°
2026-05-06 01:41 -33.93008 151.16919 34 ft 8 kts 33°
2026-05-06 01:41 -33.92979 151.16977 35 ft 10 kts 75°
2026-05-06 01:41 -33.92963 151.17066 36 ft 12 kts 77°
2026-05-06 01:42 -33.92964 151.17154 36 ft 9 kts 136°
2026-05-06 01:42 -33.93004 151.17176 35 ft 0 kts 168°
2026-05-06 01:42 -33.93065 151.17192 35 ft 31 kts 168°
2026-05-06 01:42 -33.93317 151.17258 34 ft 81 kts 168°
2026-05-06 01:43 -33.94081 151.17457 31 ft 140 kts 167°
2026-05-06 01:43 -33.95163 151.17730 49 ft 174 kts 168°
2026-05-06 01:43 -33.96334 151.18060 526 ft 169 kts 168°
2026-05-06 01:43 -33.97890 151.18092 1104 ft 171 kts 190°
2026-05-06 01:44 -33.98706 151.17928 1266 ft 181 kts 191°
2026-05-06 01:44 -34.00013 151.17700 1413 ft 198 kts 187°
2026-05-06 01:44 -34.01458 151.17554 1559 ft 221 kts 184°
2026-05-06 01:44 -34.03057 151.17631 1895 ft 242 kts 171°
2026-05-06 01:45 -34.04744 151.18156 2393 ft 256 kts 163°
2026-05-06 01:45 -34.06458 151.18764 3167 ft 257 kts 164°
2026-05-06 01:45 -34.08189 151.19352 3922 ft 260 kts 164°
2026-05-06 01:45 -34.09950 151.19936 4627 ft 265 kts 164°
2026-05-06 01:46 -34.11741 151.20530 5341 ft 269 kts 164°
2026-05-06 01:46 -34.13556 151.21132 6074 ft 272 kts 164°
2026-05-06 01:46 -34.15392 151.21742 6800 ft 275 kts 164°
2026-05-06 01:46 -34.17250 151.22360 7491 ft 279 kts 164°
2026-05-06 01:47 -34.19178 151.22666 8161 ft 284 kts 186°
2026-05-06 01:47 -34.21058 151.21949 8819 ft 287 kts 212°
2026-05-06 01:47 -34.22539 151.20340 9512 ft 288 kts 230°
2026-05-06 01:47 -34.23810 151.18463 10215 ft 291 kts 232°
2026-05-06 01:48 -34.25025 151.16464 10451 ft 308 kts 244°
2026-05-06 01:48 -34.25603 151.13970 10961 ft 312 kts 268°
2026-05-06 01:48 -34.25287 151.11355 11602 ft 313 kts 287°
2026-05-06 01:48 -34.24668 151.08816 12191 ft 315 kts 287°
2026-05-06 01:49 -34.23694 151.06442 12756 ft 319 kts 308°
2026-05-06 01:49 -34.22049 151.04703 13386 ft 323 kts 330°
2026-05-06 01:49 -34.19920 151.03814 13961 ft 328 kts 348°
2026-05-06 01:49 -34.17667 151.03331 14535 ft 330 kts 348°
2026-05-06 01:50 -34.15404 151.02819 15103 ft 332 kts 347°
2026-05-06 01:50 -34.13131 151.02291 15678 ft 334 kts 347°
2026-05-06 01:50 -34.10853 151.01707 16205 ft 335 kts 343°
2026-05-06 01:50 -34.08597 151.00939 16731 ft 338 kts 343°
2026-05-06 01:51 -34.06346 151.00026 16981 ft 348 kts 337°
2026-05-06 01:51 -34.04054 150.98922 17135 ft 361 kts 336°
2026-05-06 01:51 -34.01712 150.97779 17548 ft 365 kts 336°
2026-05-06 01:51 -33.99345 150.96629 18038 ft 367 kts 336°
2026-05-06 01:52 -33.96968 150.95482 18545 ft 369 kts 336°
2026-05-06 01:52 -33.94578 150.94330 19019 ft 371 kts 336°
2026-05-06 01:52 -33.92173 150.93173 19446 ft 374 kts 336°
2026-05-06 01:52 -33.89750 150.92007 19913 ft 375 kts 336°
2026-05-06 01:53 -33.87327 150.90845 20325 ft 378 kts 336°
2026-05-06 01:53 -33.84876 150.89670 20731 ft 380 kts 336°
2026-05-06 01:53 -33.82409 150.88489 21155 ft 382 kts 336°
2026-05-06 01:53 -33.79934 150.87306 21555 ft 385 kts 336°
2026-05-06 01:54 -33.77438 150.86112 21977 ft 387 kts 336°
2026-05-06 01:54 -33.74932 150.84913 22359 ft 389 kts 336°
2026-05-06 01:54 -33.72410 150.83707 22723 ft 391 kts 336°
2026-05-06 01:54 -33.69874 150.82496 23123 ft 393 kts 336°
2026-05-06 01:55 -33.67324 150.81278 23481 ft 395 kts 336°
2026-05-06 01:55 -33.64764 150.80058 23857 ft 397 kts 336°
2026-05-06 01:55 -33.62219 150.78754 24194 ft 398 kts 329°
2026-05-06 01:55 -33.59930 150.76906 24558 ft 397 kts 317°
2026-05-06 01:56 -33.58022 150.74531 24928 ft 397 kts 306°
2026-05-06 01:56 -33.56504 150.71809 25260 ft 399 kts 302°
2026-05-06 01:56 -33.54998 150.69013 25641 ft 400 kts 302°
2026-05-06 01:56 -33.53468 150.66210 26023 ft 402 kts 302°
2026-05-06 01:57 -33.51935 150.63408 26431 ft 403 kts 302°
2026-05-06 01:57 -33.50391 150.60586 26788 ft 406 kts 302°
2026-05-06 01:57 -33.48839 150.57746 27166 ft 409 kts 302°
2026-05-06 01:57 -33.47281 150.54893 27594 ft 410 kts 302°
2026-05-06 01:58 -33.45713 150.52027 27973 ft 412 kts 302°
2026-05-06 01:58 -33.44136 150.49152 28383 ft 414 kts 302°
2026-05-06 01:58 -33.42552 150.46260 28720 ft 417 kts 302°
2026-05-06 01:58 -33.40955 150.43348 29118 ft 419 kts 302°
2026-05-06 01:59 -33.39352 150.40430 29469 ft 422 kts 302°
2026-05-06 01:59 -33.37737 150.37492 29871 ft 423 kts 302°
2026-05-06 01:59 -33.36114 150.34544 30247 ft 426 kts 302°
2026-05-06 01:59 -33.34481 150.31579 30607 ft 428 kts 302°
2026-05-06 02:00 -33.32841 150.28602 31006 ft 430 kts 302°
2026-05-06 02:00 -33.31193 150.25615 31446 ft 430 kts 302°
2026-05-06 02:00 -33.29543 150.22626 31787 ft 433 kts 302°
2026-05-06 02:00 -33.27879 150.19613 32167 ft 434 kts 302°
2026-05-06 02:01 -33.26211 150.16595 32461 ft 437 kts 302°
2026-05-06 02:01 -33.24534 150.13565 32843 ft 438 kts 302°
2026-05-06 02:01 -33.22851 150.10526 33217 ft 439 kts 302°
2026-05-06 02:01 -33.21163 150.07477 33525 ft 441 kts 302°
2026-05-06 02:02 -33.19467 150.04422 33846 ft 443 kts 302°
2026-05-06 02:02 -33.17764 150.01354 34243 ft 443 kts 302°
2026-05-06 02:02 -33.16054 149.98273 34504 ft 446 kts 302°
2026-05-06 02:02 -33.14333 149.95176 34747 ft 450 kts 302°
2026-05-06 02:03 -33.12594 149.92056 35071 ft 451 kts 302°
2026-05-06 02:03 -33.10864 149.88951 35595 ft 448 kts 302°
2026-05-06 02:03 -33.09144 149.85868 36063 ft 446 kts 302°
2026-05-06 02:03 -33.07421 149.82779 36168 ft 447 kts 302°
2026-05-06 02:04 -33.03993 149.76638 36166 ft 446 kts 302°
2026-05-06 02:04 -33.00570 149.70517 36173 ft 447 kts 302°
2026-05-06 02:05 -32.97116 149.64353 36179 ft 447 kts 302°
2026-05-06 02:05 -32.93666 149.58206 36176 ft 446 kts 302°
2026-05-06 02:06 -32.90222 149.52081 36163 ft 444 kts 302°
2026-05-06 02:06 -32.86790 149.45988 36158 ft 443 kts 302°
2026-05-06 02:07 -32.83360 149.39908 36152 ft 442 kts 302°
2026-05-06 02:07 -32.79935 149.33846 36152 ft 441 kts 302°
2026-05-06 02:08 -32.76512 149.27799 36145 ft 440 kts 302°
2026-05-06 02:08 -32.73093 149.21765 36143 ft 440 kts 302°
2026-05-06 02:09 -32.69677 149.15749 36148 ft 439 kts 302°
2026-05-06 02:09 -32.66256 149.09730 36134 ft 440 kts 302°
2026-05-06 02:10 -32.62825 149.03711 36154 ft 441 kts 302°
2026-05-06 02:10 -32.59386 148.97682 36148 ft 443 kts 302°
2026-05-06 02:11 -32.55929 148.91630 36156 ft 444 kts 302°
2026-05-06 02:11 -32.52462 148.85573 36161 ft 444 kts 303°
2026-05-06 02:12 -32.48987 148.79513 36165 ft 445 kts 303°
2026-05-06 02:12 -32.45511 148.73457 36173 ft 444 kts 303°
2026-05-06 02:13 -32.42036 148.67415 36169 ft 444 kts 303°
2026-05-06 02:13 -32.38630 148.61503 36164 ft 443 kts 303°
2026-05-06 02:14 -32.35156 148.55481 36164 ft 442 kts 303°
2026-05-06 02:14 -32.31687 148.49479 36159 ft 442 kts 303°
2026-05-06 02:15 -32.28222 148.43491 36158 ft 441 kts 303°
2026-05-06 02:15 -32.24761 148.37517 36154 ft 440 kts 303°
2026-05-06 02:16 -32.21304 148.31562 36154 ft 439 kts 303°
2026-05-06 02:16 -32.17844 148.25618 36150 ft 439 kts 303°
2026-05-06 02:17 -32.14389 148.19684 36151 ft 438 kts 303°
2026-05-06 02:17 -32.10935 148.13761 36148 ft 438 kts 303°
2026-05-06 02:18 -32.07482 148.07850 36147 ft 438 kts 303°
2026-05-06 02:18 -32.04022 148.01937 36148 ft 438 kts 303°
2026-05-06 02:19 -32.00556 147.96025 36150 ft 438 kts 303°
2026-05-06 02:19 -31.97087 147.90114 36156 ft 439 kts 303°
2026-05-06 02:20 -31.91874 147.81248 36156 ft 439 kts 303°
2026-05-06 02:21 -31.88419 147.75382 36158 ft 439 kts 303°
2026-05-06 02:21 -31.84913 147.69440 36160 ft 439 kts 303°
2026-05-06 02:22 -31.81435 147.63554 36159 ft 438 kts 303°
2026-05-06 02:22 -31.77950 147.57670 36156 ft 438 kts 303°
2026-05-06 02:23 -31.74472 147.51797 36153 ft 438 kts 303°
2026-05-06 02:23 -31.70984 147.45929 36160 ft 438 kts 303°
2026-05-06 02:24 -31.67519 147.40108 36159 ft 438 kts 303°
2026-05-06 02:24 -31.64033 147.34249 36158 ft 438 kts 303°
2026-05-06 02:25 -31.60547 147.28398 36152 ft 437 kts 303°
2026-05-06 02:25 -31.57054 147.22566 36156 ft 437 kts 304°
2026-05-06 02:26 -31.53046 147.17187 36156 ft 440 kts 313°
2026-05-06 02:26 -31.48474 147.12385 36144 ft 441 kts 314°
2026-05-06 02:27 -31.43911 147.07572 36138 ft 441 kts 314°
2026-05-06 02:27 -31.39351 147.02763 36146 ft 441 kts 314°
2026-05-06 02:28 -31.34786 146.97963 36147 ft 441 kts 314°
2026-05-06 02:28 -31.30221 146.93174 36147 ft 441 kts 314°
2026-05-06 02:29 -31.25655 146.88386 36145 ft 441 kts 314°
2026-05-06 02:29 -31.21087 146.83604 36144 ft 441 kts 314°
2026-05-06 02:30 -31.16517 146.78826 36148 ft 441 kts 314°
2026-05-06 02:30 -31.11947 146.74057 36149 ft 441 kts 314°
2026-05-06 02:31 -31.07381 146.69301 36157 ft 440 kts 314°
2026-05-06 02:31 -31.02814 146.64544 36158 ft 440 kts 314°
2026-05-06 02:32 -30.98246 146.59796 36157 ft 440 kts 314°
2026-05-06 02:32 -30.93684 146.55054 36157 ft 439 kts 314°
2026-05-06 02:33 -30.89118 146.50322 36154 ft 439 kts 314°
2026-05-06 02:33 -30.87611 146.48761 36159 ft 439 kts 314°
2026-05-06 02:34 -30.80772 146.41686 36154 ft 438 kts 314°
2026-05-06 02:34 -30.76214 146.36981 36156 ft 438 kts 314°
2026-05-06 02:35 -30.71663 146.32283 36152 ft 437 kts 314°
2026-05-06 02:35 -30.67114 146.27596 36158 ft 437 kts 314°
2026-05-06 02:36 -30.62572 146.22920 36149 ft 437 kts 314°
2026-05-06 02:36 -30.58026 146.18248 36149 ft 436 kts 314°
2026-05-06 02:37 -30.53486 146.13592 36147 ft 435 kts 314°
2026-05-06 02:37 -30.48949 146.08943 36147 ft 435 kts 314°
2026-05-06 02:38 -30.44414 146.04300 36144 ft 435 kts 314°
2026-05-06 02:38 -30.39883 145.99665 36127 ft 434 kts 314°
2026-05-06 02:39 -30.35348 145.95036 36133 ft 435 kts 314°
2026-05-06 02:39 -30.30812 145.90411 36127 ft 435 kts 315°
2026-05-06 02:40 -30.26273 145.85790 36134 ft 434 kts 315°
2026-05-06 02:40 -30.21733 145.81174 36129 ft 435 kts 315°
2026-05-06 02:41 -30.17194 145.76563 36127 ft 435 kts 315°
2026-05-06 02:41 -30.12644 145.71945 36146 ft 435 kts 315°
2026-05-06 02:42 -30.08252 145.67496 36150 ft 435 kts 315°
2026-05-06 02:42 -30.03937 145.63132 36151 ft 435 kts 315°
2026-05-06 02:43 -29.99387 145.58531 36149 ft 435 kts 315°
2026-05-06 02:43 -29.94833 145.53936 36148 ft 435 kts 315°
2026-05-06 02:44 -29.90284 145.49348 36147 ft 434 kts 315°
2026-05-06 02:44 -29.85733 145.44768 36127 ft 434 kts 315°
2026-05-06 02:45 -29.81211 145.40220 36130 ft 434 kts 315°
2026-05-06 02:45 -29.76665 145.35654 36122 ft 434 kts 315°
2026-05-06 02:46 -29.72118 145.31089 36126 ft 434 kts 315°
2026-05-06 02:46 -29.67568 145.26533 36124 ft 434 kts 315°
2026-05-06 02:47 -29.63017 145.21982 36137 ft 434 kts 315°
2026-05-06 02:47 -29.58459 145.17427 36147 ft 434 kts 315°
2026-05-06 02:48 -29.53895 145.12872 36149 ft 434 kts 315°
2026-05-06 02:48 -29.49331 145.08322 36152 ft 434 kts 315°
2026-05-06 02:49 -29.44763 145.03774 36147 ft 435 kts 315°
2026-05-06 02:49 -29.40195 144.99233 36148 ft 435 kts 315°
2026-05-06 02:50 -29.35618 144.94691 36148 ft 435 kts 315°
2026-05-06 02:50 -29.31043 144.90149 36152 ft 435 kts 315°
2026-05-06 02:51 -29.26473 144.85619 36162 ft 435 kts 315°
2026-05-06 02:51 -29.21928 144.81122 36163 ft 435 kts 315°
2026-05-06 02:52 -29.17345 144.76596 36163 ft 435 kts 315°
2026-05-06 02:52 -29.12762 144.72070 36164 ft 435 kts 315°
2026-05-06 02:53 -29.08174 144.67546 36177 ft 435 kts 315°
2026-05-06 02:53 -29.03588 144.63027 36180 ft 435 kts 315°
2026-05-06 02:54 -28.99003 144.58516 36178 ft 435 kts 315°
2026-05-06 02:54 -28.94412 144.54007 36178 ft 435 kts 315°
2026-05-06 02:55 -28.89972 144.49645 36176 ft 435 kts 315°
2026-05-06 02:55 -28.85423 144.45167 36172 ft 435 kts 315°
2026-05-06 02:56 -28.80839 144.40668 36176 ft 435 kts 315°
2026-05-06 02:56 -28.76259 144.36174 36169 ft 434 kts 315°
2026-05-06 02:57 -28.71673 144.31687 36170 ft 434 kts 315°
2026-05-06 02:57 -28.67271 144.27385 36176 ft 434 kts 315°
2026-05-06 02:58 -28.62685 144.22905 36172 ft 434 kts 315°
2026-05-06 02:58 -28.58098 144.18432 36173 ft 434 kts 315°
2026-05-06 02:59 -28.53670 144.14124 36170 ft 434 kts 315°
2026-05-06 02:59 -28.49108 144.09683 36176 ft 435 kts 315°
2026-05-06 03:00 -28.44512 144.05211 36175 ft 435 kts 315°
2026-05-06 03:00 -28.39912 144.00746 36176 ft 435 kts 315°
2026-05-06 03:01 -28.35308 143.96282 36171 ft 435 kts 316°
2026-05-06 03:01 -28.30702 143.91815 36172 ft 435 kts 316°
2026-05-06 03:02 -28.26093 143.87359 36178 ft 436 kts 316°
2026-05-06 03:02 -28.21476 143.82902 36179 ft 436 kts 316°
2026-05-06 03:03 -28.16859 143.78447 36178 ft 436 kts 316°
2026-05-06 03:03 -28.12240 143.73994 36175 ft 436 kts 316°
2026-05-06 03:04 -28.07629 143.69551 36177 ft 435 kts 316°
2026-05-06 03:04 -28.03011 143.65115 36172 ft 435 kts 316°
2026-05-06 03:05 -27.98425 143.60709 36173 ft 435 kts 316°
2026-05-06 03:05 -27.93808 143.56280 36178 ft 435 kts 316°
2026-05-06 03:06 -27.89196 143.51858 36176 ft 434 kts 316°
2026-05-06 03:06 -27.84592 143.47450 36174 ft 434 kts 316°
2026-05-06 03:07 -27.79984 143.43044 36168 ft 434 kts 316°
2026-05-06 03:07 -27.75379 143.38647 36166 ft 433 kts 316°
2026-05-06 03:08 -27.70777 143.34256 36160 ft 433 kts 316°
2026-05-06 03:08 -27.66177 143.29875 36164 ft 432 kts 316°
2026-05-06 03:09 -27.61578 143.25497 36157 ft 433 kts 315°
2026-05-06 03:09 -27.56977 143.21121 36163 ft 433 kts 316°
2026-05-06 03:10 -27.52373 143.16753 36164 ft 433 kts 315°
2026-05-06 03:10 -27.47797 143.12412 36166 ft 433 kts 315°
2026-05-06 03:11 -27.43191 143.08046 36164 ft 433 kts 315°
2026-05-06 03:11 -27.38562 143.03664 36170 ft 432 kts 315°
2026-05-06 03:12 -27.34008 142.99348 36185 ft 429 kts 315°
2026-05-06 03:12 -27.29438 142.95042 36172 ft 428 kts 315°
2026-05-06 03:13 -27.24883 142.90745 36162 ft 427 kts 315°
2026-05-06 03:13 -27.20340 142.86467 36157 ft 425 kts 315°
2026-05-06 03:14 -27.15806 142.82206 36148 ft 424 kts 315°
2026-05-06 03:14 -27.11286 142.77955 36124 ft 423 kts 315°
2026-05-06 03:15 -27.06778 142.73720 36124 ft 422 kts 315°
2026-05-06 03:15 -27.02276 142.69496 36117 ft 422 kts 315°
2026-05-06 03:16 -26.97778 142.65281 36115 ft 421 kts 315°
2026-05-06 03:16 -26.93287 142.61076 36119 ft 420 kts 315°
2026-05-06 03:17 -26.88826 142.56905 36134 ft 420 kts 315°
2026-05-06 03:17 -26.84333 142.52707 36122 ft 421 kts 315°
2026-05-06 03:18 -26.79837 142.48512 36144 ft 421 kts 315°
2026-05-06 03:18 -26.75341 142.44323 36148 ft 420 kts 315°
2026-05-06 03:19 -26.70846 142.40138 36151 ft 420 kts 314°
2026-05-06 03:19 -26.66360 142.35966 36151 ft 419 kts 314°
2026-05-06 03:20 -26.59634 142.29718 36128 ft 419 kts 314°
2026-05-06 03:20 -26.55158 142.25564 36127 ft 418 kts 314°
2026-05-06 03:21 -26.50689 142.21425 36125 ft 417 kts 314°
2026-05-06 03:21 -26.46230 142.17298 36125 ft 416 kts 314°
2026-05-06 03:22 -26.41778 142.13180 36129 ft 415 kts 314°
2026-05-06 03:22 -26.37362 142.09101 36146 ft 415 kts 314°
2026-05-06 03:23 -26.32923 142.05003 36127 ft 414 kts 314°
2026-05-06 03:23 -26.28480 142.00910 36128 ft 414 kts 314°
2026-05-06 03:24 -26.24041 141.96820 36123 ft 414 kts 314°
2026-05-06 03:24 -26.19596 141.92732 36123 ft 414 kts 314°
2026-05-06 03:25 -26.15160 141.88655 36120 ft 414 kts 314°
2026-05-06 03:25 -26.10719 141.84577 36123 ft 414 kts 314°
2026-05-06 03:26 -26.06272 141.80500 36126 ft 414 kts 314°
2026-05-06 03:26 -26.01825 141.76423 36125 ft 414 kts 314°
2026-05-06 03:27 -25.98128 141.73038 36131 ft 415 kts 314°
2026-05-06 03:27 -25.93675 141.68965 36137 ft 414 kts 314°
2026-05-06 03:28 -25.89224 141.64899 36134 ft 414 kts 314°
2026-05-06 03:28 -25.84774 141.60839 36133 ft 414 kts 314°
2026-05-06 03:29 -25.80327 141.56786 36125 ft 414 kts 314°
2026-05-06 03:29 -25.75878 141.52732 36133 ft 414 kts 314°
2026-05-06 03:30 -25.71429 141.48682 36123 ft 414 kts 314°
2026-05-06 03:30 -25.67006 141.44661 36125 ft 414 kts 314°
2026-05-06 03:31 -25.62552 141.40618 36118 ft 414 kts 314°
2026-05-06 03:31 -25.58104 141.36583 36119 ft 414 kts 314°
2026-05-06 03:32 -25.53647 141.32542 36118 ft 414 kts 314°
2026-05-06 03:32 -25.49185 141.28501 36120 ft 414 kts 314°
2026-05-06 03:33 -25.44723 141.24465 36124 ft 414 kts 314°
2026-05-06 03:33 -25.40264 141.20433 36124 ft 414 kts 314°
2026-05-06 03:34 -25.35808 141.16406 36125 ft 414 kts 314°
2026-05-06 03:34 -25.31349 141.12388 36123 ft 414 kts 314°
2026-05-06 03:35 -25.26884 141.08376 36111 ft 413 kts 314°
2026-05-06 03:35 -25.22423 141.04364 36115 ft 414 kts 314°
2026-05-06 03:36 -25.17993 141.00379 36113 ft 413 kts 314°
2026-05-06 03:36 -25.13534 140.96373 36127 ft 413 kts 314°
2026-05-06 03:37 -25.09080 140.92374 36123 ft 413 kts 314°
2026-05-06 03:37 -25.04621 140.88376 36107 ft 413 kts 314°
2026-05-06 03:38 -25.00156 140.84377 36106 ft 413 kts 314°
2026-05-06 03:38 -24.95692 140.80384 36111 ft 413 kts 314°
2026-05-06 03:39 -24.91228 140.76394 36111 ft 413 kts 314°
2026-05-06 03:39 -24.86762 140.72406 36112 ft 413 kts 315°
2026-05-06 03:40 -24.82297 140.68426 36113 ft 413 kts 314°
2026-05-06 03:40 -24.77837 140.64449 36107 ft 412 kts 314°
2026-05-06 03:41 -24.73381 140.60482 36097 ft 412 kts 314°
2026-05-06 03:41 -24.68925 140.56518 36100 ft 412 kts 314°
2026-05-06 03:42 -24.64468 140.52557 36099 ft 412 kts 314°
2026-05-06 03:42 -24.60015 140.48602 36096 ft 411 kts 314°
2026-05-06 03:43 -24.55563 140.44656 36100 ft 411 kts 314°
2026-05-06 03:43 -24.51115 140.40713 36098 ft 411 kts 314°
2026-05-06 03:44 -24.46696 140.36801 36097 ft 411 kts 314°
2026-05-06 03:44 -24.42245 140.32866 36101 ft 411 kts 314°
2026-05-06 03:45 -24.37801 140.28938 36100 ft 410 kts 314°
2026-05-06 03:45 -24.33357 140.25013 36097 ft 410 kts 314°
2026-05-06 03:46 -24.28911 140.21091 36097 ft 410 kts 314°
2026-05-06 03:46 -24.24465 140.17174 36095 ft 410 kts 314°
2026-05-06 03:47 -24.20021 140.13258 36091 ft 410 kts 314°
2026-05-06 03:47 -24.15577 140.09351 36090 ft 410 kts 314°
2026-05-06 03:48 -24.11134 140.05447 36090 ft 410 kts 314°
2026-05-06 03:48 -24.06688 140.01544 36090 ft 410 kts 315°
2026-05-06 03:49 -24.02239 139.97645 36088 ft 410 kts 314°
2026-05-06 03:49 -23.97790 139.93743 36081 ft 410 kts 314°
2026-05-06 03:50 -23.93338 139.89845 36085 ft 410 kts 314°
2026-05-06 03:50 -23.88892 139.85955 36090 ft 409 kts 314°
2026-05-06 03:51 -23.84443 139.82066 36095 ft 409 kts 314°
2026-05-06 03:51 -23.79993 139.78181 36099 ft 410 kts 314°
2026-05-06 03:52 -23.75535 139.74292 36095 ft 410 kts 315°
2026-05-06 03:52 -23.71103 139.70428 36089 ft 411 kts 315°
2026-05-06 03:53 -23.66632 139.66534 36092 ft 411 kts 315°
2026-05-06 03:53 -23.62162 139.62642 36093 ft 411 kts 315°
2026-05-06 03:54 -23.57684 139.58752 36092 ft 412 kts 315°
2026-05-06 03:54 -23.53200 139.54862 36089 ft 412 kts 315°
2026-05-06 03:55 -23.48720 139.50972 36090 ft 412 kts 315°
2026-05-06 03:55 -23.44230 139.47079 36089 ft 413 kts 315°
2026-05-06 03:56 -23.39733 139.43183 36101 ft 413 kts 315°
2026-05-06 03:56 -23.35233 139.39289 36097 ft 414 kts 315°
2026-05-06 03:57 -23.30722 139.35390 36100 ft 414 kts 315°
2026-05-06 03:57 -23.26208 139.31491 36095 ft 415 kts 315°
2026-05-06 03:58 -23.21688 139.27589 36101 ft 415 kts 315°
2026-05-06 03:58 -23.17168 139.23691 36100 ft 415 kts 315°
2026-05-06 03:59 -23.12635 139.19786 36096 ft 416 kts 315°
2026-05-06 03:59 -23.08097 139.15880 36102 ft 416 kts 315°
2026-05-06 04:00 -23.03554 139.11973 36099 ft 416 kts 315°
2026-05-06 04:00 -22.99008 139.08069 36098 ft 417 kts 315°
2026-05-06 04:01 -22.94460 139.04163 36098 ft 417 kts 315°
2026-05-06 04:01 -22.89903 139.00256 36107 ft 417 kts 315°
2026-05-06 04:02 -22.85376 138.96379 36108 ft 417 kts 315°
2026-05-06 04:02 -22.80820 138.92475 36106 ft 417 kts 315°
2026-05-06 04:03 -22.76260 138.88572 36100 ft 418 kts 315°
2026-05-06 04:03 -22.71698 138.84673 36100 ft 418 kts 315°
2026-05-06 04:04 -22.67140 138.80779 36100 ft 418 kts 315°
2026-05-06 04:04 -22.62577 138.76887 36097 ft 418 kts 315°
2026-05-06 04:05 -22.58011 138.72996 36091 ft 418 kts 316°
2026-05-06 04:05 -22.53442 138.69104 36095 ft 418 kts 316°
2026-05-06 04:06 -22.48865 138.65207 36089 ft 419 kts 316°
2026-05-06 04:06 -22.44282 138.61310 36093 ft 419 kts 316°
2026-05-06 04:07 -22.39699 138.57418 36092 ft 419 kts 316°
2026-05-06 04:07 -22.35110 138.53522 36088 ft 420 kts 316°
2026-05-06 04:08 -22.30514 138.49624 36091 ft 420 kts 316°
2026-05-06 04:08 -22.25946 138.45756 36093 ft 420 kts 316°
2026-05-06 04:09 -22.21344 138.41857 36089 ft 421 kts 316°
2026-05-06 04:09 -22.16738 138.37960 36093 ft 421 kts 316°
2026-05-06 04:10 -22.12129 138.34066 36094 ft 421 kts 316°
2026-05-06 04:10 -22.07520 138.30174 36068 ft 421 kts 316°
2026-05-06 04:11 -22.02902 138.26278 36066 ft 421 kts 316°
2026-05-06 04:11 -21.98286 138.22386 36059 ft 421 kts 316°
2026-05-06 04:12 -21.93672 138.18499 36057 ft 421 kts 316°
2026-05-06 04:12 -21.89056 138.14609 36059 ft 421 kts 316°
2026-05-06 04:13 -21.84468 138.10754 36067 ft 421 kts 316°
2026-05-06 04:13 -21.79848 138.06876 36057 ft 421 kts 316°
2026-05-06 04:14 -21.75229 138.02998 36056 ft 421 kts 316°
2026-05-06 04:14 -21.70612 137.99125 36054 ft 421 kts 316°
2026-05-06 04:15 -21.65995 137.95251 36063 ft 421 kts 316°
2026-05-06 04:15 -21.61371 137.91376 36062 ft 422 kts 316°
2026-05-06 04:16 -21.56732 137.87507 36059 ft 422 kts 317°
2026-05-06 04:16 -21.52061 137.83668 36062 ft 423 kts 316°
2026-05-06 04:17 -21.47386 137.79820 36057 ft 423 kts 316°
2026-05-06 04:17 -21.42714 137.75973 36069 ft 424 kts 316°
2026-05-06 04:18 -21.38033 137.72119 36067 ft 424 kts 317°
2026-05-06 04:18 -21.33347 137.68269 36079 ft 424 kts 317°
2026-05-06 04:19 -21.28691 137.64445 36082 ft 424 kts 317°
2026-05-06 04:19 -21.24003 137.60600 36076 ft 424 kts 317°
2026-05-06 04:20 -21.19307 137.56752 36063 ft 425 kts 317°
2026-05-06 04:20 -21.15412 137.53557 36066 ft 425 kts 317°
2026-05-06 04:21 -21.10720 137.49712 36067 ft 425 kts 317°
2026-05-06 04:21 -21.06014 137.45863 36065 ft 426 kts 317°
2026-05-06 04:22 -21.01302 137.42012 36071 ft 426 kts 317°
2026-05-06 04:23 -20.94223 137.36230 36075 ft 427 kts 317°
2026-05-06 04:23 -20.89497 137.32375 36076 ft 428 kts 317°
2026-05-06 04:24 -20.84766 137.28516 36079 ft 428 kts 317°
2026-05-06 04:24 -20.80027 137.24658 36071 ft 428 kts 317°
2026-05-06 04:25 -20.75289 137.20803 36071 ft 428 kts 317°
2026-05-06 04:25 -20.70549 137.16949 36079 ft 428 kts 317°
2026-05-06 04:26 -20.65803 137.13094 36076 ft 429 kts 317°
2026-05-06 04:26 -20.61053 137.09238 36076 ft 429 kts 317°
2026-05-06 04:27 -20.56305 137.05388 36071 ft 429 kts 317°
2026-05-06 04:27 -20.51555 137.01538 36071 ft 429 kts 317°
2026-05-06 04:28 -20.46804 136.97688 36070 ft 429 kts 317°
2026-05-06 04:28 -20.42081 136.93866 36072 ft 429 kts 317°
2026-05-06 04:29 -20.37322 136.90020 36072 ft 429 kts 317°
2026-05-06 04:29 -20.32531 136.86148 36074 ft 429 kts 317°
2026-05-06 04:30 -20.27801 136.82328 36075 ft 429 kts 317°
2026-05-06 04:30 -20.23042 136.78488 36074 ft 429 kts 317°
2026-05-06 04:31 -20.18278 136.74649 36070 ft 430 kts 317°
2026-05-06 04:31 -20.13508 136.70808 36066 ft 430 kts 317°
2026-05-06 04:32 -20.08736 136.66973 36067 ft 430 kts 317°
2026-05-06 04:32 -20.03965 136.63133 36074 ft 430 kts 317°
2026-05-06 04:33 -19.99187 136.59295 36072 ft 431 kts 317°
2026-05-06 04:33 -19.94403 136.55453 36062 ft 432 kts 317°
2026-05-06 04:34 -19.89603 136.51603 36064 ft 433 kts 317°
2026-05-06 04:34 -19.84792 136.47746 36072 ft 433 kts 317°
2026-05-06 04:35 -19.79974 136.43886 36071 ft 434 kts 317°
2026-05-06 04:35 -19.75184 136.40054 36070 ft 434 kts 317°
2026-05-06 04:36 -19.70360 136.36197 36067 ft 434 kts 317°
2026-05-06 04:36 -19.65537 136.32342 36070 ft 434 kts 317°
2026-05-06 04:37 -19.60716 136.28494 36069 ft 434 kts 317°
2026-05-06 04:37 -19.55901 136.24651 36067 ft 433 kts 317°
2026-05-06 04:38 -19.51081 136.20810 36063 ft 433 kts 318°
2026-05-06 04:38 -19.46258 136.16966 36056 ft 434 kts 317°
2026-05-06 04:39 -19.41429 136.13124 36059 ft 434 kts 318°
2026-05-06 04:39 -19.36595 136.09279 36063 ft 435 kts 318°
2026-05-06 04:40 -19.31763 136.05437 36067 ft 435 kts 318°
2026-05-06 04:40 -19.26916 136.01588 36053 ft 436 kts 318°
2026-05-06 04:41 -19.22068 135.97742 36054 ft 436 kts 318°
2026-05-06 04:41 -19.17249 135.93920 36057 ft 436 kts 318°
2026-05-06 04:42 -19.12388 135.90066 36055 ft 437 kts 318°
2026-05-06 04:42 -19.07516 135.86209 36047 ft 438 kts 318°
2026-05-06 04:43 -19.02637 135.82350 36057 ft 439 kts 318°
2026-05-06 04:43 -18.97747 135.78483 36059 ft 439 kts 318°
2026-05-06 04:44 -18.92850 135.74615 36059 ft 440 kts 318°
2026-05-06 04:44 -18.87944 135.70743 36055 ft 440 kts 318°
2026-05-06 04:45 -18.83039 135.66873 36056 ft 441 kts 318°
2026-05-06 04:45 -18.78122 135.63000 36035 ft 441 kts 319°
2026-05-06 04:46 -18.73238 135.59151 36049 ft 441 kts 319°
2026-05-06 04:46 -18.68316 135.55276 36034 ft 442 kts 319°
2026-05-06 04:47 -18.63391 135.51403 36038 ft 442 kts 319°
2026-05-06 04:47 -18.58464 135.47529 36046 ft 442 kts 319°
2026-05-06 04:48 -18.53536 135.43658 36056 ft 442 kts 319°
2026-05-06 04:48 -18.48602 135.39790 36041 ft 442 kts 319°
2026-05-06 04:49 -18.43669 135.35920 36035 ft 442 kts 319°
2026-05-06 04:49 -18.38735 135.32053 36051 ft 442 kts 319°
2026-05-06 04:50 -18.33795 135.28187 36034 ft 442 kts 319°
2026-05-06 04:50 -18.28855 135.24321 36036 ft 443 kts 319°
2026-05-06 04:51 -18.23911 135.20455 36028 ft 443 kts 319°
2026-05-06 04:51 -18.18961 135.16590 36030 ft 443 kts 319°
2026-05-06 04:52 -18.14013 135.12726 36028 ft 443 kts 319°
2026-05-06 04:52 -18.09069 135.08867 36029 ft 443 kts 319°
2026-05-06 04:53 -18.04123 135.05013 36027 ft 443 kts 319°
2026-05-06 04:53 -17.99211 135.01186 36025 ft 442 kts 319°
2026-05-06 04:54 -17.94254 134.97325 36002 ft 444 kts 319°
2026-05-06 04:54 -17.89286 134.93461 36010 ft 445 kts 319°
2026-05-06 04:55 -17.84304 134.89588 36027 ft 446 kts 319°
2026-05-06 04:55 -17.79311 134.85709 36024 ft 447 kts 319°
2026-05-06 04:56 -17.74313 134.81829 36026 ft 447 kts 319°
2026-05-06 04:56 -17.69311 134.77951 36025 ft 447 kts 319°
2026-05-06 04:57 -17.64311 134.74076 36025 ft 447 kts 319°
2026-05-06 04:57 -17.59317 134.70207 36021 ft 446 kts 319°
2026-05-06 04:58 -17.54318 134.66336 36021 ft 446 kts 319°
2026-05-06 04:58 -17.49328 134.62475 36008 ft 446 kts 319°
2026-05-06 04:59 -17.44336 134.58615 36001 ft 446 kts 319°
2026-05-06 04:59 -17.39375 134.54784 36000 ft 446 kts 319°
2026-05-06 05:00 -17.34376 134.50928 36005 ft 446 kts 319°
2026-05-06 05:00 -17.29375 134.47069 36007 ft 447 kts 319°
2026-05-06 05:01 -17.24372 134.43211 36001 ft 447 kts 320°
2026-05-06 05:01 -17.19366 134.39351 35997 ft 448 kts 320°
2026-05-06 05:02 -17.14348 134.35490 35998 ft 448 kts 320°
2026-05-06 05:02 -17.09321 134.31625 35999 ft 449 kts 320°
2026-05-06 05:03 -17.04289 134.27757 35998 ft 449 kts 320°
2026-05-06 05:03 -16.99249 134.23885 35997 ft 450 kts 320°
2026-05-06 05:04 -16.94206 134.20014 35995 ft 450 kts 320°
2026-05-06 05:04 -16.89156 134.16138 36004 ft 451 kts 320°
2026-05-06 05:05 -16.84134 134.12286 35998 ft 451 kts 320°
2026-05-06 05:05 -16.79061 134.08401 36102 ft 455 kts 320°
2026-05-06 05:05 -16.76510 134.06449 36542 ft 454 kts 320°
2026-05-06 05:06 -16.73969 134.04504 37000 ft 453 kts 320°
2026-05-06 05:06 -16.71428 134.02560 37410 ft 453 kts 320°
2026-05-06 05:06 -16.68889 134.00617 37804 ft 453 kts 320°
2026-05-06 05:06 -16.66339 133.98666 37980 ft 457 kts 320°
2026-05-06 05:07 -16.63789 133.96717 37990 ft 450 kts 320°
2026-05-06 05:07 -16.58759 133.92872 37990 ft 449 kts 320°
2026-05-06 05:08 -16.53721 133.89023 37989 ft 449 kts 320°
2026-05-06 05:08 -16.48677 133.85183 37953 ft 450 kts 320°
2026-05-06 05:09 -16.43624 133.81337 37983 ft 449 kts 320°
2026-05-06 05:09 -16.38581 133.77497 37980 ft 448 kts 320°
2026-05-06 05:10 -16.33545 133.73666 37977 ft 448 kts 320°
2026-05-06 05:10 -16.28511 133.69840 37957 ft 448 kts 320°
2026-05-06 05:11 -16.23479 133.66018 37966 ft 448 kts 320°
2026-05-06 05:11 -16.18451 133.62201 37978 ft 447 kts 320°
2026-05-06 05:12 -16.13434 133.58393 37981 ft 447 kts 320°
2026-05-06 05:12 -16.09263 133.55230 37980 ft 446 kts 320°
2026-05-06 05:13 -16.03442 133.50820 37982 ft 445 kts 320°
2026-05-06 05:13 -15.98442 133.47033 37980 ft 444 kts 320°
2026-05-06 05:14 -15.93452 133.43256 37952 ft 444 kts 321°
2026-05-06 05:14 -15.89268 133.40093 37964 ft 443 kts 321°
2026-05-06 05:15 -15.84314 133.36348 37959 ft 443 kts 321°
2026-05-06 05:15 -15.79331 133.32585 37969 ft 443 kts 321°
2026-05-06 05:16 -15.74346 133.28823 37958 ft 443 kts 321°
2026-05-06 05:16 -15.69358 133.25060 37978 ft 443 kts 321°
2026-05-06 05:17 -15.64366 133.21294 37955 ft 444 kts 321°
2026-05-06 05:17 -15.59367 133.17528 37958 ft 444 kts 321°
2026-05-06 05:18 -15.54365 133.13761 37979 ft 445 kts 321°
2026-05-06 05:18 -15.49349 133.09989 37986 ft 446 kts 321°
2026-05-06 05:19 -15.44329 133.06211 37985 ft 446 kts 321°
2026-05-06 05:19 -15.39304 133.02432 37984 ft 446 kts 321°
2026-05-06 05:20 -15.34276 132.98656 37979 ft 446 kts 321°
2026-05-06 05:20 -15.29254 132.94883 37957 ft 446 kts 321°
2026-05-06 05:21 -15.24224 132.91110 37963 ft 447 kts 321°
2026-05-06 05:21 -15.19224 132.87363 37965 ft 447 kts 321°
2026-05-06 05:22 -15.14190 132.83588 37954 ft 447 kts 321°
2026-05-06 05:22 -15.09156 132.79817 37967 ft 447 kts 321°
2026-05-06 05:23 -15.04115 132.76047 37972 ft 447 kts 321°
2026-05-06 05:23 -14.96558 132.70394 37953 ft 447 kts 321°
2026-05-06 05:24 -14.91519 132.66624 37964 ft 447 kts 321°
2026-05-06 05:24 -14.86511 132.62882 37964 ft 447 kts 321°
2026-05-06 05:25 -14.81469 132.59120 37962 ft 447 kts 321°
2026-05-06 05:25 -14.76422 132.55355 37973 ft 447 kts 321°
2026-05-06 05:26 -14.71372 132.51591 37955 ft 448 kts 321°
2026-05-06 05:26 -14.66322 132.47828 37965 ft 448 kts 321°
2026-05-06 05:27 -14.61270 132.44064 37959 ft 448 kts 321°
2026-05-06 05:27 -14.56215 132.40301 37958 ft 448 kts 321°
2026-05-06 05:28 -14.51459 132.36193 37965 ft 444 kts 311°
2026-05-06 05:28 -14.47526 132.31311 37955 ft 442 kts 306°
2026-05-06 05:29 -14.43736 132.26303 37963 ft 443 kts 306°
2026-05-06 05:29 -14.39935 132.21306 37954 ft 443 kts 306°
2026-05-06 05:30 -14.36137 132.16306 37952 ft 443 kts 306°
2026-05-06 05:30 -14.32334 132.11302 37955 ft 443 kts 306°
2026-05-06 05:31 -14.28528 132.06297 37966 ft 443 kts 306°
2026-05-06 05:31 -14.24747 132.01325 37955 ft 443 kts 306°
2026-05-06 05:32 -14.20941 131.96329 37954 ft 443 kts 306°
2026-05-06 05:32 -14.17131 131.91328 37956 ft 443 kts 307°
2026-05-06 05:33 -14.13321 131.86328 37957 ft 443 kts 307°
2026-05-06 05:33 -14.09507 131.81333 37966 ft 443 kts 306°
2026-05-06 05:34 -14.05699 131.76341 37955 ft 443 kts 306°
2026-05-06 05:34 -14.01887 131.71349 37957 ft 443 kts 306°
2026-05-06 05:35 -13.98069 131.66357 37956 ft 444 kts 306°
2026-05-06 05:35 -13.94255 131.61366 37954 ft 444 kts 306°
2026-05-06 05:36 -13.90435 131.56374 37945 ft 444 kts 306°
2026-05-06 05:36 -13.86611 131.51377 37947 ft 444 kts 306°
2026-05-06 05:37 -13.82779 131.46373 37949 ft 445 kts 306°
2026-05-06 05:37 -13.78942 131.41365 37949 ft 446 kts 306°
2026-05-06 05:38 -13.75100 131.36355 37951 ft 447 kts 306°
2026-05-06 05:38 -13.71246 131.31333 37941 ft 447 kts 306°
2026-05-06 05:39 -13.67413 131.26344 37943 ft 448 kts 306°
2026-05-06 05:39 -13.63551 131.21315 37949 ft 448 kts 306°
2026-05-06 05:40 -13.59685 131.16282 37949 ft 449 kts 306°
2026-05-06 05:40 -13.55813 131.11239 37932 ft 450 kts 306°
2026-05-06 05:41 -13.51932 131.06186 37921 ft 450 kts 306°
2026-05-06 05:41 -13.48050 131.01134 37916 ft 451 kts 306°
2026-05-06 05:42 -13.44165 130.96083 37915 ft 451 kts 306°
2026-05-06 05:42 -13.40386 130.91172 37908 ft 451 kts 306°
2026-05-06 05:43 -13.36490 130.86112 37907 ft 452 kts 306°
2026-05-06 05:43 -13.32593 130.81054 37910 ft 452 kts 306°
2026-05-06 05:44 -13.28690 130.75993 37907 ft 452 kts 306°
2026-05-06 05:44 -13.24791 130.70941 37905 ft 452 kts 306°
2026-05-06 05:45 -13.20886 130.65881 37898 ft 452 kts 306°
2026-05-06 05:45 -13.16977 130.60819 37894 ft 452 kts 306°
2026-05-06 05:46 -13.13066 130.55757 37895 ft 453 kts 306°
2026-05-06 05:46 -13.09148 130.50693 37896 ft 453 kts 306°
2026-05-06 05:47 -13.05233 130.45631 37900 ft 453 kts 306°
2026-05-06 05:47 -13.01337 130.40594 37895 ft 453 kts 306°
2026-05-06 05:48 -12.97388 130.35498 37893 ft 454 kts 306°
2026-05-06 05:48 -12.93461 130.30430 37891 ft 454 kts 306°
2026-05-06 05:49 -12.89557 130.25394 37899 ft 454 kts 306°
2026-05-06 05:49 -12.85623 130.20325 37896 ft 454 kts 306°
2026-05-06 05:50 -12.81689 130.15258 37898 ft 455 kts 306°
2026-05-06 05:50 -12.77747 130.10181 37899 ft 455 kts 306°
2026-05-06 05:51 -12.73806 130.05113 37899 ft 455 kts 306°
2026-05-06 05:51 -12.69868 130.00044 37896 ft 455 kts 306°
2026-05-06 05:52 -12.65919 129.94969 37894 ft 456 kts 306°
2026-05-06 05:52 -12.61966 129.89890 37891 ft 456 kts 306°
2026-05-06 05:53 -12.58031 129.84838 37901 ft 457 kts 306°
2026-05-06 05:53 -12.54071 129.79757 37901 ft 457 kts 306°
2026-05-06 05:54 -12.50101 129.74667 37901 ft 457 kts 306°
2026-05-06 05:54 -12.46135 129.69582 37902 ft 457 kts 306°
2026-05-06 05:55 -12.42167 129.64494 37901 ft 457 kts 306°
2026-05-06 05:55 -12.38193 129.59410 37900 ft 458 kts 306°
2026-05-06 05:56 -12.34219 129.54325 37897 ft 458 kts 306°
2026-05-06 05:56 -12.30243 129.49238 37902 ft 457 kts 306°
2026-05-06 05:57 -12.26271 129.44160 37897 ft 458 kts 306°
2026-05-06 05:57 -12.22291 129.39077 37896 ft 458 kts 306°
2026-05-06 05:58 -12.18314 129.34000 37902 ft 457 kts 306°
2026-05-06 05:58 -12.14337 129.28923 37897 ft 457 kts 306°
2026-05-06 05:59 -12.10357 129.23846 37899 ft 458 kts 306°
2026-05-06 05:59 -12.06408 129.18809 37896 ft 458 kts 306°
2026-05-06 06:00 -12.02416 129.13742 37895 ft 458 kts 306°
2026-05-06 06:00 -11.98414 129.08670 37888 ft 459 kts 306°
2026-05-06 06:01 -11.94403 129.03587 37889 ft 460 kts 306°
2026-05-06 06:01 -11.90382 128.98492 37892 ft 462 kts 306°
2026-05-06 06:02 -11.86346 128.93381 37897 ft 463 kts 306°
2026-05-06 06:02 -11.82297 128.88258 37901 ft 464 kts 306°
2026-05-06 06:03 -11.78243 128.83128 37908 ft 465 kts 306°
2026-05-06 06:03 -11.74178 128.77990 37905 ft 465 kts 306°
2026-05-06 06:04 -11.70112 128.72850 37906 ft 466 kts 306°
2026-05-06 06:04 -11.66064 128.67738 37907 ft 466 kts 306°
2026-05-06 06:05 -11.61994 128.62598 37888 ft 466 kts 306°
2026-05-06 06:05 -11.57916 128.57455 37889 ft 466 kts 306°
2026-05-06 06:06 -11.53842 128.52320 37883 ft 466 kts 306°
2026-05-06 06:06 -11.49771 128.47187 37882 ft 466 kts 306°
2026-05-06 06:07 -11.45697 128.42054 37869 ft 466 kts 306°
2026-05-06 06:07 -11.41623 128.36924 37866 ft 466 kts 306°
2026-05-06 06:08 -11.38232 128.32657 37873 ft 466 kts 306°
2026-05-06 06:08 -11.34154 128.27526 37873 ft 466 kts 306°
2026-05-06 06:09 -11.30071 128.22390 37885 ft 467 kts 306°
2026-05-06 06:09 -11.25980 128.17249 37880 ft 467 kts 306°
2026-05-06 06:10 -11.21883 128.12103 37880 ft 468 kts 306°
2026-05-06 06:10 -11.17786 128.06961 37878 ft 468 kts 306°
2026-05-06 06:11 -11.13683 128.01812 37890 ft 468 kts 306°
2026-05-06 06:11 -11.09584 127.96674 37887 ft 467 kts 306°
2026-05-06 06:12 -11.05494 127.91547 37863 ft 466 kts 306°
2026-05-06 06:12 -11.01407 127.86425 37864 ft 466 kts 306°
2026-05-06 06:13 -10.97320 127.81307 37863 ft 466 kts 306°
2026-05-06 06:13 -10.93235 127.76193 37861 ft 466 kts 306°
2026-05-06 06:14 -10.89171 127.71106 37855 ft 467 kts 306°
2026-05-06 06:14 -10.85071 127.65979 37860 ft 467 kts 306°
2026-05-06 06:15 -10.80959 127.60841 37866 ft 468 kts 306°
2026-05-06 06:15 -10.76849 127.55703 37864 ft 469 kts 306°
2026-05-06 06:16 -10.72724 127.50553 37883 ft 470 kts 306°
2026-05-06 06:16 -10.68592 127.45397 37878 ft 470 kts 306°
2026-05-06 06:17 -10.64455 127.40235 37878 ft 471 kts 306°
2026-05-06 06:17 -10.60311 127.35071 37864 ft 471 kts 306°
2026-05-06 06:18 -10.56165 127.29902 37871 ft 472 kts 306°
2026-05-06 06:18 -10.52023 127.24742 37867 ft 472 kts 306°
2026-05-06 06:19 -10.47879 127.19579 37862 ft 471 kts 306°
2026-05-06 06:19 -10.43768 127.14407 37857 ft 470 kts 303°
2026-05-06 06:20 -10.40428 127.08751 37857 ft 466 kts 296°
2026-05-06 06:20 -10.37320 127.02971 37858 ft 466 kts 296°
2026-05-06 06:21 -10.34219 126.97240 37857 ft 466 kts 296°
2026-05-06 06:21 -10.31098 126.91467 37863 ft 466 kts 296°
2026-05-06 06:22 -10.27981 126.85703 37863 ft 466 kts 296°
2026-05-06 06:22 -10.24861 126.79939 37860 ft 466 kts 296°
2026-05-06 06:23 -10.21740 126.74172 37860 ft 466 kts 296°
2026-05-06 06:23 -10.18618 126.68409 37855 ft 466 kts 296°
2026-05-06 06:24 -10.15498 126.62651 37861 ft 466 kts 296°
2026-05-06 06:24 -10.12375 126.56890 37860 ft 466 kts 296°
2026-05-06 06:25 -10.09251 126.51128 37857 ft 466 kts 296°
2026-05-06 06:26 -10.04582 126.42527 37860 ft 466 kts 296°
2026-05-06 06:26 -10.01452 126.36766 37859 ft 466 kts 296°
2026-05-06 06:27 -9.98323 126.31006 37858 ft 466 kts 296°
2026-05-06 06:27 -9.95192 126.25242 37856 ft 467 kts 296°
2026-05-06 06:28 -9.92053 126.19472 37867 ft 467 kts 296°
2026-05-06 06:28 -9.88912 126.13700 37864 ft 467 kts 296°
2026-05-06 06:29 -9.86024 126.07821 37864 ft 466 kts 293°
2026-05-06 06:29 -9.83218 126.01895 37863 ft 466 kts 293°
2026-05-06 06:30 -9.80407 125.95977 37862 ft 466 kts 293°
2026-05-06 06:30 -9.77596 125.90059 37860 ft 466 kts 293°
2026-05-06 06:31 -9.74787 125.84143 37856 ft 466 kts 293°
2026-05-06 06:31 -9.71971 125.78225 37852 ft 466 kts 293°
2026-05-06 06:32 -9.69174 125.72344 37857 ft 466 kts 293°
2026-05-06 06:32 -9.66355 125.66418 37855 ft 467 kts 293°
2026-05-06 06:33 -9.63532 125.60492 37856 ft 468 kts 293°
2026-05-06 06:33 -9.60701 125.54551 37862 ft 468 kts 293°
2026-05-06 06:34 -9.57868 125.48606 37858 ft 468 kts 293°
2026-05-06 06:34 -9.55031 125.42656 37860 ft 469 kts 293°
2026-05-06 06:35 -9.52191 125.36703 37859 ft 470 kts 294°
2026-05-06 06:35 -9.49343 125.30739 37860 ft 470 kts 294°
2026-05-06 06:36 -9.46495 125.24778 37865 ft 471 kts 294°
2026-05-06 06:36 -9.43641 125.18807 37858 ft 471 kts 294°
2026-05-06 06:37 -9.40788 125.12840 37859 ft 471 kts 294°
2026-05-06 06:37 -9.37927 125.06861 37861 ft 472 kts 294°
2026-05-06 06:38 -9.35063 125.00883 37862 ft 472 kts 294°
2026-05-06 06:38 -9.32203 124.94910 37855 ft 472 kts 294°
2026-05-06 06:39 -9.29338 124.88928 37858 ft 472 kts 294°
2026-05-06 06:39 -9.26488 124.82981 37861 ft 473 kts 294°
2026-05-06 06:40 -9.23619 124.76999 37867 ft 473 kts 294°
2026-05-06 06:40 -9.20745 124.71011 37853 ft 473 kts 294°
2026-05-06 06:41 -9.17872 124.65027 37851 ft 473 kts 294°
2026-05-06 06:41 -9.14999 124.59043 37853 ft 473 kts 294°
2026-05-06 06:42 -9.12127 124.53069 37849 ft 472 kts 294°
2026-05-06 06:42 -9.09251 124.47086 37846 ft 473 kts 294°
2026-05-06 06:43 -9.06372 124.41104 37846 ft 473 kts 294°
2026-05-06 06:43 -9.03492 124.35122 37847 ft 473 kts 294°
2026-05-06 06:44 -9.00608 124.29136 37844 ft 473 kts 294°
2026-05-06 06:44 -8.97724 124.23149 37848 ft 474 kts 294°
2026-05-06 06:45 -8.94835 124.17155 37845 ft 474 kts 294°
2026-05-06 06:45 -8.91944 124.11159 37851 ft 475 kts 294°
2026-05-06 06:46 -8.89049 124.05158 37851 ft 475 kts 294°
2026-05-06 06:46 -8.86172 123.99196 37849 ft 475 kts 294°
2026-05-06 06:47 -8.83267 123.93187 37849 ft 476 kts 294°
2026-05-06 06:47 -8.80364 123.87179 37851 ft 476 kts 294°
2026-05-06 06:48 -8.77454 123.81161 37853 ft 476 kts 294°
2026-05-06 06:48 -8.74541 123.75140 37850 ft 477 kts 294°
2026-05-06 06:49 -8.71627 123.69118 37855 ft 477 kts 294°
2026-05-06 06:49 -8.68710 123.63094 37854 ft 477 kts 294°
2026-05-06 06:50 -8.65791 123.57067 37855 ft 477 kts 294°
2026-05-06 06:50 -8.62873 123.51044 37853 ft 477 kts 294°
2026-05-06 06:51 -8.59951 123.45017 37851 ft 477 kts 294°
2026-05-06 06:51 -8.57027 123.38992 37853 ft 478 kts 294°
2026-05-06 06:52 -8.54102 123.32966 37852 ft 478 kts 294°
2026-05-06 06:52 -8.51172 123.26937 37854 ft 478 kts 294°
2026-05-06 06:53 -8.48265 123.20951 37852 ft 478 kts 294°
2026-05-06 06:53 -8.45340 123.14931 37852 ft 478 kts 294°
2026-05-06 06:54 -8.42411 123.08907 37851 ft 478 kts 294°
2026-05-06 06:54 -8.39482 123.02884 37850 ft 478 kts 294°
2026-05-06 06:55 -8.36550 122.96862 37849 ft 478 kts 294°
2026-05-06 06:55 -8.33614 122.90834 37851 ft 478 kts 294°
2026-05-06 06:56 -8.30680 122.84809 37844 ft 478 kts 294°
2026-05-06 06:56 -8.27744 122.78786 37842 ft 478 kts 294°
2026-05-06 06:57 -8.24803 122.72756 37846 ft 479 kts 294°
2026-05-06 06:57 -8.21860 122.66721 37851 ft 479 kts 294°
2026-05-06 06:58 -8.18918 122.60692 37847 ft 479 kts 294°
2026-05-06 06:58 -8.15968 122.54650 37851 ft 480 kts 295°
2026-05-06 06:59 -8.13036 122.48644 37848 ft 480 kts 295°
2026-05-06 06:59 -8.10059 122.42558 37850 ft 481 kts 295°
2026-05-06 07:00 -8.07119 122.36544 37853 ft 481 kts 295°
2026-05-06 07:00 -8.04155 122.30480 37852 ft 482 kts 295°
2026-05-06 07:01 -8.01190 122.24423 37855 ft 482 kts 295°
2026-05-06 07:01 -7.98701 122.19344 37853 ft 482 kts 295°
2026-05-06 07:02 -7.95754 122.13321 37852 ft 482 kts 295°
2026-05-06 07:02 -7.92781 122.07255 37855 ft 482 kts 295°
2026-05-06 07:03 -7.89806 122.01187 37855 ft 483 kts 295°
2026-05-06 07:03 -7.86830 121.95116 37859 ft 483 kts 295°
2026-05-06 07:04 -7.83853 121.89050 37851 ft 483 kts 295°
2026-05-06 07:04 -7.80880 121.82988 37844 ft 482 kts 295°
2026-05-06 07:05 -7.77902 121.76929 37845 ft 482 kts 295°
2026-05-06 07:05 -7.74927 121.70869 37836 ft 482 kts 295°
2026-05-06 07:06 -7.71951 121.64814 37836 ft 482 kts 295°
2026-05-06 07:06 -7.68972 121.58757 37837 ft 482 kts 295°
2026-05-06 07:07 -7.65994 121.52700 37841 ft 482 kts 295°
2026-05-06 07:07 -7.63012 121.46641 37842 ft 483 kts 295°
2026-05-06 07:08 -7.60026 121.40577 37842 ft 483 kts 295°
2026-05-06 07:08 -7.57060 121.34555 37842 ft 483 kts 295°
2026-05-06 07:09 -7.54073 121.28497 37840 ft 483 kts 295°
2026-05-06 07:09 -7.51083 121.22428 37841 ft 483 kts 295°
2026-05-06 07:10 -7.48092 121.16361 37839 ft 483 kts 295°
2026-05-06 07:10 -7.45102 121.10300 37842 ft 483 kts 295°
2026-05-06 07:11 -7.42109 121.04235 37836 ft 484 kts 295°
2026-05-06 07:11 -7.39117 120.98173 37839 ft 483 kts 295°
2026-05-06 07:12 -7.36120 120.92106 37840 ft 484 kts 295°
2026-05-06 07:12 -7.33124 120.86037 37841 ft 484 kts 295°
2026-05-06 07:13 -7.30123 120.79970 37843 ft 484 kts 295°
2026-05-06 07:13 -7.27121 120.73904 37844 ft 484 kts 295°
2026-05-06 07:14 -7.24121 120.67839 37840 ft 484 kts 295°
2026-05-06 07:14 -7.21121 120.61781 37841 ft 484 kts 295°
2026-05-06 07:15 -7.18141 120.55761 37840 ft 484 kts 295°
2026-05-06 07:15 -7.15138 120.49698 37840 ft 484 kts 295°
2026-05-06 07:16 -7.12134 120.43635 37842 ft 484 kts 295°
2026-05-06 07:16 -7.09129 120.37572 37842 ft 484 kts 295°
2026-05-06 07:17 -7.06121 120.31507 37837 ft 484 kts 295°
2026-05-06 07:17 -7.03118 120.25446 37837 ft 484 kts 296°
2026-05-06 07:18 -7.00105 120.19379 37839 ft 485 kts 296°
2026-05-06 07:18 -6.97087 120.13301 37833 ft 486 kts 296°
2026-05-06 07:19 -6.94066 120.07214 37837 ft 486 kts 296°
2026-05-06 07:19 -6.91042 120.01130 37830 ft 487 kts 296°
2026-05-06 07:20 -6.88016 119.95088 37828 ft 487 kts 296°
2026-05-06 07:20 -6.84966 119.88991 37826 ft 488 kts 296°
2026-05-06 07:21 -6.81911 119.82891 37829 ft 488 kts 296°
2026-05-06 07:21 -6.78856 119.76785 37833 ft 489 kts 296°
2026-05-06 07:22 -6.75796 119.70671 37835 ft 489 kts 296°
2026-05-06 07:22 -6.72731 119.64553 37836 ft 490 kts 296°
2026-05-06 07:23 -6.69664 119.58435 37835 ft 490 kts 296°
2026-05-06 07:23 -6.66594 119.52311 37835 ft 490 kts 296°
2026-05-06 07:24 -6.63524 119.46186 37834 ft 490 kts 296°
2026-05-06 07:24 -6.60455 119.40066 37834 ft 490 kts 296°
2026-05-06 07:25 -6.57380 119.33940 37835 ft 491 kts 296°
2026-05-06 07:25 -6.54304 119.27814 37834 ft 491 kts 296°
2026-05-06 07:26 -6.51230 119.21692 37834 ft 491 kts 296°
2026-05-06 07:26 -6.48152 119.15566 37831 ft 491 kts 296°
2026-05-06 07:27 -6.45074 119.09440 37834 ft 491 kts 296°
2026-05-06 07:27 -6.42017 119.03356 37830 ft 491 kts 296°
2026-05-06 07:28 -6.38937 118.97230 37830 ft 491 kts 296°
2026-05-06 07:28 -6.34315 118.88047 37829 ft 491 kts 295°
2026-05-06 07:29 -6.31230 118.81916 37828 ft 491 kts 296°
2026-05-06 07:29 -6.28142 118.75782 37832 ft 492 kts 296°
2026-05-06 07:30 -6.25053 118.69649 37832 ft 492 kts 295°
2026-05-06 07:30 -6.21959 118.63508 37831 ft 493 kts 295°
2026-05-06 07:31 -6.18880 118.57398 37833 ft 493 kts 295°
2026-05-06 07:31 -6.15781 118.51252 37835 ft 493 kts 295°
2026-05-06 07:32 -6.12676 118.45097 37833 ft 494 kts 295°
2026-05-06 07:32 -6.09568 118.38941 37832 ft 494 kts 295°
2026-05-06 07:33 -6.06459 118.32779 37832 ft 494 kts 295°
2026-05-06 07:33 -6.03348 118.26615 37832 ft 495 kts 295°
2026-05-06 07:34 -6.00236 118.20454 37835 ft 495 kts 295°
2026-05-06 07:34 -5.97122 118.14285 37835 ft 495 kts 295°
2026-05-06 07:35 -5.94003 118.08118 37834 ft 495 kts 295°
2026-05-06 07:35 -5.90888 118.01956 37833 ft 495 kts 295°
2026-05-06 07:36 -5.87768 117.95791 37835 ft 495 kts 295°
2026-05-06 07:36 -5.84673 117.89672 37832 ft 495 kts 295°
2026-05-06 07:37 -5.81558 117.83514 37832 ft 495 kts 295°
2026-05-06 07:37 -5.78438 117.77350 37828 ft 495 kts 295°
2026-05-06 07:38 -5.75315 117.71187 37821 ft 495 kts 295°
2026-05-06 07:38 -5.72197 117.65028 37821 ft 495 kts 295°
2026-05-06 07:39 -5.69073 117.58861 37824 ft 495 kts 296°
2026-05-06 07:39 -5.65943 117.52691 37823 ft 496 kts 296°
2026-05-06 07:40 -5.62818 117.46524 37825 ft 496 kts 296°
2026-05-06 07:40 -5.59688 117.40352 37824 ft 496 kts 296°
2026-05-06 07:41 -5.56557 117.34183 37826 ft 496 kts 296°
2026-05-06 07:41 -5.53426 117.28016 37828 ft 496 kts 296°
2026-05-06 07:42 -5.50312 117.21882 37828 ft 496 kts 296°
2026-05-06 07:42 -5.47179 117.15711 37825 ft 496 kts 296°
2026-05-06 07:43 -5.44047 117.09545 37818 ft 496 kts 296°
2026-05-06 07:43 -5.40912 117.03373 37823 ft 496 kts 296°
2026-05-06 07:44 -5.37777 116.97206 37825 ft 496 kts 296°
2026-05-06 07:44 -5.34639 116.91034 37825 ft 496 kts 296°
2026-05-06 07:45 -5.31498 116.84860 37816 ft 497 kts 296°
2026-05-06 07:45 -5.28358 116.78688 37822 ft 496 kts 296°
2026-05-06 07:46 -5.25220 116.72525 37819 ft 496 kts 296°
2026-05-06 07:46 -5.22080 116.66360 37814 ft 496 kts 296°
2026-05-06 07:47 -5.18947 116.60202 37814 ft 496 kts 296°
2026-05-06 07:47 -5.15809 116.54041 37811 ft 496 kts 296°
2026-05-06 07:48 -5.12693 116.47924 37812 ft 496 kts 296°
2026-05-06 07:48 -5.09554 116.41766 37811 ft 496 kts 296°
2026-05-06 07:49 -5.06415 116.35609 37802 ft 496 kts 296°
2026-05-06 07:49 -5.03273 116.29449 37802 ft 496 kts 296°
2026-05-06 07:50 -5.00130 116.23284 37795 ft 497 kts 297°
2026-05-06 07:50 -4.96986 116.17121 37797 ft 497 kts 297°
2026-05-06 07:51 -4.93836 116.10949 37790 ft 497 kts 296°
2026-05-06 07:51 -4.90686 116.04778 37793 ft 497 kts 297°
2026-05-06 07:52 -4.87607 115.98748 37794 ft 497 kts 297°
2026-05-06 07:52 -4.84455 115.92579 37793 ft 498 kts 297°
2026-05-06 07:53 -4.81298 115.86400 37795 ft 498 kts 297°
2026-05-06 07:53 -4.78143 115.80219 37797 ft 498 kts 297°
2026-05-06 07:54 -4.74984 115.74042 37797 ft 498 kts 297°
2026-05-06 07:54 -4.71820 115.67857 37790 ft 498 kts 297°
2026-05-06 07:55 -4.68657 115.61672 37789 ft 498 kts 297°
2026-05-06 07:55 -4.66027 115.56533 37789 ft 498 kts 297°
2026-05-06 07:56 -4.62354 115.49352 37790 ft 498 kts 297°
2026-05-06 07:56 -4.59187 115.43167 37788 ft 498 kts 297°
2026-05-06 07:57 -4.56537 115.37993 37789 ft 498 kts 297°
2026-05-06 07:57 -4.53371 115.31814 37787 ft 498 kts 297°
2026-05-06 07:58 -4.50213 115.25644 37787 ft 498 kts 297°
2026-05-06 07:58 -4.47048 115.19466 37787 ft 498 kts 297°
2026-05-06 07:59 -4.43884 115.13292 37787 ft 498 kts 297°
2026-05-06 07:59 -4.40720 115.07120 37786 ft 498 kts 297°
2026-05-06 08:00 -4.37555 115.00944 37788 ft 498 kts 297°
2026-05-06 08:00 -4.34389 114.94767 37780 ft 498 kts 297°
2026-05-06 08:01 -4.31290 114.88566 37779 ft 498 kts 296°
2026-05-06 08:01 -4.28248 114.82332 37779 ft 498 kts 296°
2026-05-06 08:02 -4.25194 114.76103 37779 ft 498 kts 296°
2026-05-06 08:02 -4.22154 114.69923 37776 ft 498 kts 296°
2026-05-06 08:03 -4.19073 114.63665 37782 ft 497 kts 296°
2026-05-06 08:03 -4.16015 114.57450 37781 ft 497 kts 296°
2026-05-06 08:04 -4.12978 114.51281 37781 ft 497 kts 296°
2026-05-06 08:04 -4.09922 114.45075 37779 ft 497 kts 296°
2026-05-06 08:05 -4.06863 114.38866 37779 ft 497 kts 296°
2026-05-06 08:05 -4.03806 114.32661 37777 ft 497 kts 296°
2026-05-06 08:06 -4.00748 114.26458 37776 ft 496 kts 296°
2026-05-06 08:06 -3.97697 114.20264 37774 ft 496 kts 296°
2026-05-06 08:07 -3.94640 114.14062 37775 ft 497 kts 296°
2026-05-06 08:07 -3.91581 114.07859 37774 ft 496 kts 296°
2026-05-06 08:08 -3.88522 114.01663 37776 ft 497 kts 296°
2026-05-06 08:08 -3.85461 113.95460 37776 ft 496 kts 296°
2026-05-06 08:09 -3.82401 113.89262 37775 ft 496 kts 296°
2026-05-06 08:09 -3.79345 113.83070 37775 ft 497 kts 296°
2026-05-06 08:10 -3.76305 113.76910 37774 ft 497 kts 296°
2026-05-06 08:10 -3.73246 113.70716 37773 ft 496 kts 296°
2026-05-06 08:11 -3.70185 113.64519 37769 ft 496 kts 296°
2026-05-06 08:11 -3.67125 113.58324 37769 ft 496 kts 296°
2026-05-06 08:12 -3.64065 113.52132 37771 ft 496 kts 296°
2026-05-06 08:12 -3.61002 113.45931 37771 ft 497 kts 296°
2026-05-06 08:13 -3.57939 113.39735 37774 ft 497 kts 296°
2026-05-06 08:13 -3.54871 113.33534 37773 ft 497 kts 296°
2026-05-06 08:14 -3.51806 113.27335 37774 ft 497 kts 296°
2026-05-06 08:14 -3.48737 113.21130 37775 ft 497 kts 296°
2026-05-06 08:15 -3.45670 113.14927 37775 ft 497 kts 296°
2026-05-06 08:15 -3.42598 113.08719 37777 ft 497 kts 296°
2026-05-06 08:16 -3.39531 113.02521 37776 ft 497 kts 296°
2026-05-06 08:16 -3.36457 112.96317 37777 ft 497 kts 296°
2026-05-06 08:17 -3.33387 112.90117 37778 ft 498 kts 296°
2026-05-06 08:17 -3.30310 112.83910 37782 ft 498 kts 296°
2026-05-06 08:18 -3.27238 112.77701 37784 ft 498 kts 296°
2026-05-06 08:18 -3.24163 112.71491 37776 ft 498 kts 296°
2026-05-06 08:19 -3.21085 112.65275 37780 ft 498 kts 296°
2026-05-06 08:19 -3.18004 112.59057 37781 ft 499 kts 297°
2026-05-06 08:20 -3.16458 112.55940 38029 ft 501 kts 296°
2026-05-06 08:20 -3.14910 112.52816 38492 ft 500 kts 296°
2026-05-06 08:20 -3.13367 112.49705 38927 ft 500 kts 296°
2026-05-06 08:20 -3.11824 112.46593 39368 ft 499 kts 296°
2026-05-06 08:21 -3.10285 112.43489 39701 ft 500 kts 296°
2026-05-06 08:21 -3.08734 112.40361 39777 ft 500 kts 296°
2026-05-06 08:21 -3.05685 112.34212 39777 ft 489 kts 296°
2026-05-06 08:22 -3.02640 112.28120 39776 ft 493 kts 297°
2026-05-06 08:22 -2.99483 112.22057 39776 ft 496 kts 298°
2026-05-06 08:23 -2.96299 112.15941 39776 ft 495 kts 297°
2026-05-06 08:23 -2.93193 112.09951 39773 ft 494 kts 297°
2026-05-06 08:24 -2.90027 112.03845 39764 ft 494 kts 297°
2026-05-06 08:24 -2.86866 111.97746 39758 ft 494 kts 297°
2026-05-06 08:25 -2.83708 111.91652 39760 ft 493 kts 298°
2026-05-06 08:25 -2.80550 111.85564 39757 ft 493 kts 298°
2026-05-06 08:26 -2.77396 111.79480 39751 ft 493 kts 298°
2026-05-06 08:26 -2.74240 111.73394 39752 ft 493 kts 298°
2026-05-06 08:27 -2.70945 111.67376 39757 ft 493 kts 303°
2026-05-06 08:27 -2.67166 111.61639 39758 ft 494 kts 304°
2026-05-06 08:28 -2.63401 111.55881 39771 ft 495 kts 303°
2026-05-06 08:28 -2.59628 111.50114 39778 ft 496 kts 304°
2026-05-06 08:29 -2.55845 111.44337 39783 ft 497 kts 304°
2026-05-06 08:29 -2.52061 111.38553 39781 ft 497 kts 304°
2026-05-06 08:30 -2.48270 111.32768 39777 ft 497 kts 304°
2026-05-06 08:30 -2.44481 111.26985 39776 ft 497 kts 304°
2026-05-06 08:31 -2.40699 111.21210 39774 ft 496 kts 304°
2026-05-06 08:31 -2.36919 111.15441 39769 ft 496 kts 304°
2026-05-06 08:32 -2.33141 111.09676 39771 ft 495 kts 304°
2026-05-06 08:32 -2.29371 111.03919 39769 ft 495 kts 304°
2026-05-06 08:33 -2.25602 110.98169 39768 ft 494 kts 304°
2026-05-06 08:33 -2.21832 110.92431 39768 ft 494 kts 304°
2026-05-06 08:34 -2.16163 110.83831 39765 ft 493 kts 304°
2026-05-06 08:35 -2.12391 110.78109 39759 ft 493 kts 304°
2026-05-06 08:35 -2.08617 110.72383 39765 ft 493 kts 304°
2026-05-06 08:36 -2.04846 110.66660 39765 ft 493 kts 304°
2026-05-06 08:36 -2.01078 110.60943 39769 ft 493 kts 304°
2026-05-06 08:37 -1.97307 110.55222 39761 ft 492 kts 304°
2026-05-06 08:37 -1.93539 110.49507 39766 ft 493 kts 304°
2026-05-06 08:38 -1.89768 110.43786 39769 ft 493 kts 304°
2026-05-06 08:38 -1.85998 110.38072 39769 ft 492 kts 304°
2026-05-06 08:39 -1.82230 110.32356 39767 ft 492 kts 304°
2026-05-06 08:39 -1.78465 110.26648 39760 ft 492 kts 304°
2026-05-06 08:40 -1.74700 110.20942 39774 ft 492 kts 304°
2026-05-06 08:40 -1.70936 110.15229 39774 ft 492 kts 304°
2026-05-06 08:41 -1.67810 110.10492 39782 ft 492 kts 304°
2026-05-06 08:41 -1.64042 110.04779 39784 ft 492 kts 304°
2026-05-06 08:42 -1.59668 109.98146 39777 ft 492 kts 304°
2026-05-06 08:42 -1.56511 109.93359 39777 ft 492 kts 304°
2026-05-06 08:43 -1.52741 109.87646 39776 ft 492 kts 304°
2026-05-06 08:43 -1.48999 109.81972 39778 ft 492 kts 304°
2026-05-06 08:44 -1.45231 109.76259 39778 ft 492 kts 304°
2026-05-06 08:44 -1.41461 109.70544 39772 ft 493 kts 304°
2026-05-06 08:45 -1.37692 109.64829 39771 ft 492 kts 304°
2026-05-06 08:45 -1.33918 109.59111 39773 ft 493 kts 304°
2026-05-06 08:46 -1.30145 109.53396 39776 ft 493 kts 304°
2026-05-06 08:46 -1.26367 109.47670 39772 ft 494 kts 304°
2026-05-06 08:47 -1.22621 109.41994 39774 ft 494 kts 304°
2026-05-06 08:47 -1.18837 109.36260 39775 ft 494 kts 304°
2026-05-06 08:48 -1.15054 109.30528 39781 ft 495 kts 304°
2026-05-06 08:48 -1.11267 109.24789 39780 ft 495 kts 304°
2026-05-06 08:49 -1.07502 109.19086 39781 ft 495 kts 304°
2026-05-06 08:49 -1.03711 109.13343 39776 ft 495 kts 304°
2026-05-06 08:50 -0.99922 109.07600 39776 ft 495 kts 304°
2026-05-06 08:50 -0.96146 109.01852 39778 ft 495 kts 304°
2026-05-06 08:51 -0.92367 108.96097 39777 ft 495 kts 304°
2026-05-06 08:51 -0.88591 108.90344 39777 ft 495 kts 304°
2026-05-06 08:52 -0.84818 108.84594 39776 ft 495 kts 304°
2026-05-06 08:52 -0.81051 108.78836 39777 ft 495 kts 304°
2026-05-06 08:53 -0.77286 108.73081 39776 ft 495 kts 304°
2026-05-06 08:53 -0.73521 108.67330 39776 ft 495 kts 304°
2026-05-06 08:54 -0.69752 108.61577 39777 ft 495 kts 304°
2026-05-06 08:54 -0.65965 108.55787 39775 ft 494 kts 304°
2026-05-06 08:55 -0.62227 108.50074 39776 ft 494 kts 304°
2026-05-06 08:55 -0.58446 108.44336 39777 ft 494 kts 304°
2026-05-06 08:56 -0.54661 108.38602 39777 ft 494 kts 304°
2026-05-06 08:56 -0.50878 108.32867 39777 ft 494 kts 304°
2026-05-06 08:57 -0.47096 108.27128 39778 ft 494 kts 304°
2026-05-06 08:57 -0.43318 108.21397 39776 ft 494 kts 304°
2026-05-06 08:58 -0.39543 108.15672 39775 ft 493 kts 304°
2026-05-06 08:58 -0.35770 108.09948 39775 ft 494 kts 304°
2026-05-06 08:59 -0.31992 108.04218 39777 ft 494 kts 304°
2026-05-06 08:59 -0.28216 107.98492 39778 ft 494 kts 304°
2026-05-06 09:00 -0.24437 107.92757 39777 ft 493 kts 304°
2026-05-06 09:00 -0.20664 107.87034 39775 ft 493 kts 304°
2026-05-06 09:01 -0.16888 107.81309 39772 ft 493 kts 304°
2026-05-06 09:01 -0.13117 107.75589 39781 ft 493 kts 304°
2026-05-06 09:02 -0.09365 107.69910 39782 ft 493 kts 304°
2026-05-06 09:02 -0.05564 107.64203 39785 ft 493 kts 304°
2026-05-06 09:03 -0.01765 107.58498 39785 ft 493 kts 304°
2026-05-06 09:03 0.02032 107.52792 39784 ft 493 kts 304°
2026-05-06 09:04 0.05825 107.47091 39785 ft 493 kts 304°
2026-05-06 09:04 0.09626 107.41379 39786 ft 493 kts 304°
2026-05-06 09:05 0.13422 107.35675 39785 ft 493 kts 304°
2026-05-06 09:05 0.17211 107.29978 39785 ft 493 kts 304°
2026-05-06 09:06 0.21004 107.24277 39784 ft 493 kts 304°
2026-05-06 09:06 0.24799 107.18574 39785 ft 493 kts 304°
2026-05-06 09:07 0.28591 107.12876 39793 ft 492 kts 304°
2026-05-06 09:07 0.32380 107.07180 39792 ft 492 kts 304°
2026-05-06 09:08 0.36168 107.01485 39791 ft 492 kts 304°
2026-05-06 09:08 0.39713 106.95636 39792 ft 493 kts 296°
2026-05-06 09:09 0.42091 106.89218 39793 ft 494 kts 285°
2026-05-06 09:09 0.43275 106.82451 39793 ft 495 kts 278°
2026-05-06 09:10 0.44260 106.75640 39798 ft 495 kts 278°
2026-05-06 09:10 0.45249 106.68829 39802 ft 495 kts 279°
2026-05-06 09:11 0.46233 106.62022 39794 ft 495 kts 279°
2026-05-06 09:11 0.47207 106.55265 39789 ft 494 kts 279°
2026-05-06 09:12 0.48185 106.48466 39784 ft 495 kts 278°
2026-05-06 09:12 0.49171 106.41653 39789 ft 496 kts 278°
2026-05-06 09:13 0.50155 106.34843 39620 ft 493 kts 278°
2026-05-06 09:13 0.50640 106.31466 39371 ft 489 kts 278°
2026-05-06 09:13 0.51123 106.28114 39122 ft 487 kts 278°
2026-05-06 09:13 0.51606 106.24770 38877 ft 488 kts 278°
2026-05-06 09:14 0.52091 106.21409 38623 ft 489 kts 278°
2026-05-06 09:14 0.52576 106.18047 38377 ft 490 kts 278°
2026-05-06 09:14 0.53060 106.14681 38127 ft 490 kts 278°
2026-05-06 09:14 0.53545 106.11319 37888 ft 490 kts 278°
2026-05-06 09:15 0.54033 106.07944 37630 ft 490 kts 278°
2026-05-06 09:15 0.54520 106.04575 37390 ft 490 kts 278°
2026-05-06 09:15 0.55006 106.01207 37132 ft 490 kts 278°
2026-05-06 09:15 0.55491 105.97833 36880 ft 491 kts 278°
2026-05-06 09:16 0.55977 105.94463 36634 ft 490 kts 278°
2026-05-06 09:16 0.56463 105.91086 36384 ft 490 kts 278°
2026-05-06 09:16 0.56949 105.87714 36124 ft 492 kts 278°
2026-05-06 09:16 0.57437 105.84327 35887 ft 493 kts 278°
2026-05-06 09:17 0.57925 105.80937 35643 ft 493 kts 278°
2026-05-06 09:17 0.58414 105.77554 35389 ft 494 kts 278°
2026-05-06 09:17 0.58904 105.74151 35138 ft 495 kts 278°
2026-05-06 09:17 0.59397 105.70734 34890 ft 496 kts 278°
2026-05-06 09:18 0.59888 105.67322 34641 ft 497 kts 278°
2026-05-06 09:18 0.60383 105.63901 34391 ft 498 kts 278°
2026-05-06 09:18 0.60876 105.60477 34141 ft 497 kts 278°
2026-05-06 09:18 0.61366 105.57069 33897 ft 495 kts 278°
2026-05-06 09:19 0.61855 105.53668 33583 ft 493 kts 278°
2026-05-06 09:19 0.62343 105.50279 33073 ft 492 kts 278°
2026-05-06 09:19 0.62898 105.46931 32714 ft 486 kts 284°
2026-05-06 09:19 0.63988 105.43753 32317 ft 483 kts 296°
2026-05-06 09:20 0.65683 105.40873 31926 ft 480 kts 308°
2026-05-06 09:20 0.67929 105.38422 31807 ft 479 kts 320°
2026-05-06 09:20 0.70625 105.36482 31801 ft 479 kts 331°
2026-05-06 09:21 0.76558 105.33441 31536 ft 478 kts 334°
2026-05-06 09:21 0.79474 105.31939 31033 ft 477 kts 333°
2026-05-06 09:21 0.82423 105.30355 30427 ft 474 kts 332°
2026-05-06 09:21 0.85297 105.28766 29829 ft 470 kts 332°
2026-05-06 09:22 0.88136 105.27179 29231 ft 466 kts 332°
2026-05-06 09:22 0.90848 105.25508 28593 ft 464 kts 324°
2026-05-06 09:22 0.93223 105.23330 27853 ft 464 kts 311°
2026-05-06 09:22 0.95093 105.20709 27103 ft 464 kts 299°
2026-05-06 09:23 0.96392 105.17717 26346 ft 463 kts 287°
2026-05-06 09:23 0.97231 105.14616 25597 ft 461 kts 284°
2026-05-06 09:23 0.98013 105.11513 24846 ft 459 kts 284°
2026-05-06 09:23 0.98810 105.08436 24102 ft 457 kts 285°
2026-05-06 09:24 0.99632 105.05380 23352 ft 454 kts 285°
2026-05-06 09:24 1.00469 105.02342 22586 ft 451 kts 286°
2026-05-06 09:24 1.01303 104.99350 21732 ft 444 kts 286°
2026-05-06 09:24 1.02117 104.96440 20903 ft 438 kts 286°
2026-05-06 09:25 1.02930 104.93532 20092 ft 431 kts 286°
2026-05-06 09:25 1.03727 104.90672 19336 ft 423 kts 286°
2026-05-06 09:25 1.04512 104.87869 18593 ft 416 kts 286°
2026-05-06 09:25 1.05287 104.85108 17846 ft 409 kts 286°
2026-05-06 09:26 1.06046 104.82400 17100 ft 402 kts 286°
2026-05-06 09:26 1.06792 104.79730 16348 ft 396 kts 286°
2026-05-06 09:26 1.07527 104.77102 15600 ft 390 kts 286°
2026-05-06 09:26 1.08252 104.74507 14840 ft 384 kts 286°
2026-05-06 09:27 1.08967 104.71949 14100 ft 379 kts 286°
2026-05-06 09:27 1.09671 104.69430 13355 ft 374 kts 286°
2026-05-06 09:27 1.10364 104.66950 12618 ft 369 kts 286°
2026-05-06 09:27 1.11047 104.64501 11869 ft 364 kts 286°
2026-05-06 09:28 1.11726 104.62076 11149 ft 359 kts 285°
2026-05-06 09:28 1.12392 104.59698 10742 ft 353 kts 285°
2026-05-06 09:28 1.13046 104.57358 10301 ft 348 kts 285°
2026-05-06 09:28 1.13692 104.55047 10039 ft 344 kts 285°
2026-05-06 09:29 1.14337 104.52741 10005 ft 341 kts 285°
2026-05-06 09:29 1.14752 104.51255 10024 ft 329 kts 285°
2026-05-06 09:29 1.15348 104.49120 10041 ft 310 kts 285°
2026-05-06 09:29 1.15918 104.47082 10059 ft 300 kts 286°
2026-05-06 09:30 1.16653 104.45146 9898 ft 299 kts 296°
2026-05-06 09:30 1.17730 104.43362 9531 ft 300 kts 305°
2026-05-06 09:30 1.18924 104.41666 9154 ft 297 kts 304°
2026-05-06 09:30 1.20088 104.39968 8780 ft 295 kts 304°
2026-05-06 09:31 1.21233 104.38282 8405 ft 292 kts 304°
2026-05-06 09:31 1.22368 104.36606 8029 ft 290 kts 303°
2026-05-06 09:31 1.23494 104.34945 7668 ft 287 kts 304°
2026-05-06 09:31 1.24609 104.33303 7379 ft 283 kts 304°
2026-05-06 09:32 1.25701 104.31697 7122 ft 277 kts 303°
2026-05-06 09:32 1.26776 104.30117 6878 ft 272 kts 303°
2026-05-06 09:32 1.27826 104.28564 6636 ft 267 kts 303°
2026-05-06 09:32 1.28861 104.27038 6395 ft 263 kts 303°
2026-05-06 09:33 1.29887 104.25539 6139 ft 260 kts 304°
2026-05-06 09:33 1.30897 104.24056 5894 ft 257 kts 303°
2026-05-06 09:33 1.31892 104.22594 5648 ft 253 kts 304°
2026-05-06 09:33 1.33151 104.21400 5393 ft 250 kts 332°
2026-05-06 09:34 1.34795 104.20898 5162 ft 247 kts 349°
2026-05-06 09:34 1.36462 104.20565 4912 ft 245 kts 348°
2026-05-06 09:34 1.38126 104.20211 4670 ft 243 kts 347°
2026-05-06 09:34 1.39775 104.19852 4429 ft 241 kts 348°
2026-05-06 09:35 1.41413 104.19499 4175 ft 240 kts 348°
2026-05-06 09:35 1.43043 104.19149 3930 ft 239 kts 348°
2026-05-06 09:35 1.44660 104.18800 3738 ft 236 kts 348°
2026-05-06 09:35 1.46256 104.18457 3541 ft 233 kts 348°
2026-05-06 09:36 1.47833 104.18119 3348 ft 231 kts 348°
2026-05-06 09:36 1.49392 104.17784 3142 ft 228 kts 348°
2026-05-06 09:36 1.50936 104.17452 2949 ft 226 kts 348°
2026-05-06 09:36 1.52422 104.16965 2749 ft 224 kts 331°
2026-05-06 09:37 1.53648 104.16062 2638 ft 213 kts 318°
2026-05-06 09:37 1.54731 104.15144 2641 ft 193 kts 320°
2026-05-06 09:37 1.55759 104.14312 2634 ft 190 kts 320°
2026-05-06 09:37 1.56785 104.13479 2777 ft 190 kts 320°
2026-05-06 09:38 1.57813 104.12637 3030 ft 193 kts 320°
2026-05-06 09:38 1.58852 104.11779 3155 ft 194 kts 320°
2026-05-06 09:38 1.59869 104.10899 3163 ft 193 kts 308°
2026-05-06 09:38 1.60353 104.09680 3174 ft 191 kts 268°
2026-05-06 09:39 1.59867 104.08494 3174 ft 188 kts 220°
2026-05-06 09:39 1.58757 104.07820 3170 ft 187 kts 202°
2026-05-06 09:39 1.57549 104.07339 3170 ft 187 kts 200°
2026-05-06 09:39 1.56375 104.06848 3172 ft 177 kts 202°
2026-05-06 09:40 1.55258 104.06371 3170 ft 174 kts 202°
2026-05-06 09:40 1.54146 104.05900 3169 ft 173 kts 202°
2026-05-06 09:40 1.51940 104.04966 3079 ft 174 kts 202°
2026-05-06 09:41 1.50833 104.04496 2844 ft 172 kts 202°
2026-05-06 09:41 1.49774 104.04047 2625 ft 158 kts 202°
2026-05-06 09:41 1.48800 104.03635 2419 ft 147 kts 203°
2026-05-06 09:41 1.47872 104.03243 2227 ft 144 kts 202°
2026-05-06 09:42 1.46952 104.02850 2040 ft 143 kts 203°
2026-05-06 09:42 1.46033 104.02464 1845 ft 144 kts 204°
2026-05-06 09:42 1.45112 104.02068 1652 ft 144 kts 203°
2026-05-06 09:42 1.44191 104.01682 1461 ft 143 kts 203°
2026-05-06 09:43 1.43272 104.01290 1269 ft 144 kts 205°
2026-05-06 09:43 1.42350 104.00902 1077 ft 144 kts 204°
2026-05-06 09:43 1.41423 104.00507 885 ft 145 kts 204°
2026-05-06 09:43 1.40496 104.00115 685 ft 145 kts 204°
2026-05-06 09:44 1.39601 103.99730 489 ft 144 kts 204°
2026-05-06 09:44 1.38677 103.99341 276 ft 143 kts 204°
2026-05-06 09:44 1.37762 103.98955 96 ft 143 kts 203°
2026-05-06 09:44 1.36893 103.98587 33 ft 119 kts 204°
2026-05-06 09:45 1.36357 103.98361 33 ft 41 kts 204°
2026-05-06 09:45 1.36180 103.98293 32 ft 26 kts 197°
2026-05-06 09:45 1.36037 103.98277 32 ft 12 kts 177°
2026-05-06 09:45 1.35951 103.98293 32 ft 9 kts 146°
2026-05-06 09:46 1.35925 103.98353 31 ft 11 kts 71°
2026-05-06 09:46 1.35987 103.98402 31 ft 13 kts 20°
2026-05-06 09:46 1.36078 103.98438 30 ft 12 kts 24°
2026-05-06 09:46 1.36106 103.98493 31 ft 11 kts 105°
2026-05-06 09:47 1.36084 103.98547 31 ft 8 kts 120°
2026-05-06 09:47 1.36040 103.98587 30 ft 8 kts 153°
2026-05-06 09:47 1.35980 103.98608 29 ft 9 kts 163°
2026-05-06 09:47 1.35942 103.98619 30 ft 4 kts 163°
2026-05-06 09:48 1.35929 103.98623 30 ft 2 kts 163°
2026-05-06 09:48 1.35918 103.98627 30 ft 0 kts 162°